FW6366 Weather Reports


Display with metric or nautical units.
time (UTC)temp
F
wind
direction
speed
MPH
gust
MPH
rain 1hr
in
rain 24hr
in
rain mn
in
humidity
%
barometer
mb
20260508231559 49 183 0.0 6.0 0.00 0.00 0.00 61 1010.5
20260508231100 50 191 2.0 7.0 0.00 0.00 0.00 60 1010.5
20260508230604 50 179 1.0 7.0 0.00 0.00 0.00 60 1010.4
20260508230059 50 161 3.0 7.0 0.00 0.00 0.00 58 1010.4
20260508225559 50 176 3.0 7.0 0.00 0.00 0.00 59 1010.3
20260508225100 50 190 2.0 7.0 0.00 0.00 0.00 60 1010.3
20260508224640 50 195 3.0 8.0 0.00 0.00 0.00 59 1010.2
20260508224100 50 198 4.0 8.0 0.00 0.00 0.00 58 1010.2
20260508223600 50 178 2.0 9.0 0.00 0.00 0.00 58 1010.3
20260508223100 50 235 3.0 9.0 0.00 0.00 0.00 58 1010.3
20260508222601 50 167 3.0 7.0 0.00 0.00 0.00 57 1010.2
20260508222059 50 184 1.0 8.0 0.00 0.00 0.00 59 1010.2
20260508221602 50 108 0.0 8.0 0.00 0.00 0.00 56 1010.2
20260508221100 50 170 1.0 14.0 0.00 0.00 0.00 56 1010.2
20260508220557 50 220 3.0 14.0 0.00 0.00 0.00 58 1010.3
20260508220059 50 174 3.0 9.0 0.00 0.00 0.00 58 1010.3
20260508215557 51 192 4.0 10.0 0.00 0.00 0.00 57 1010.2
20260508215059 51 189 5.0 10.0 0.00 0.00 0.00 56 1010.3
20260508214601 51 233 4.0 7.0 0.00 0.00 0.00 55 1010.1
20260508214100 51 159 3.0 7.0 0.00 0.00 0.00 54 1010.1
20260508213559 52 173 1.0 5.0 0.00 0.00 0.00 48 1010.0
20260508213059 52 0 0.0 6.0 0.00 0.00 0.00 46 1009.8
20260508212559 52 179 0.0 6.0 0.00 0.00 0.00 46 1009.7
20260508212101 52 84 1.0 6.0 0.00 0.00 0.00 43 1009.6
20260508211602 52 13 0.0 8.0 0.00 0.00 0.00 46 1009.6
20260508211100 52 0 4.0 8.0 0.00 0.00 0.00 44 1009.5
20260508210603 52 78 1.0 3.0 0.00 0.00 0.00 43 1009.4
20260508210059 52 0 0.0 3.0 0.00 0.00 0.00 43 1009.6
20260508205559 52 0 0.0 2.0 0.00 0.00 0.00 43 1009.5
20260508205058 52 0 0.0 5.0 0.00 0.00 0.00 40 1009.5
20260508204559 52 0 0.0 5.0 0.00 0.00 0.00 41 1009.5
20260508204059 52 55 2.0 7.0 0.00 0.00 0.00 41 1009.5
20260508203559 52 173 3.0 7.0 0.00 0.00 0.00 42 1009.5
20260508203107 53 191 2.0 7.0 0.00 0.00 0.00 44 1009.4
20260508202559 53 0 2.0 5.0 0.00 0.00 0.00 42 1009.4
20260508202059 53 135 0.0 11.0 0.00 0.00 0.00 41 1009.3
20260508201605 53 304 2.0 11.0 0.00 0.00 0.00 42 1009.4
20260508201100 54 169 1.0 9.0 0.00 0.00 0.00 41 1009.4
20260508200559 54 265 3.0 9.0 0.00 0.00 0.00 40 1009.4
20260508200058 54 131 3.0 7.0 0.00 0.00 0.00 45 1009.3
20260508195600 53 173 3.0 6.0 0.00 0.00 0.00 43 1009.4
20260508195102 53 127 0.0 7.0 0.00 0.00 0.00 42 1009.5
20260508194600 53 0 0.0 7.0 0.00 0.00 0.00 44 1009.5
20260508194100 54 5 3.0 10.0 0.00 0.00 0.00 43 1009.6
20260508193601 54 335 3.0 10.0 0.00 0.00 0.00 42 1009.3
20260508193103 55 1 3.0 12.0 0.00 0.00 0.00 41 1009.4
20260508192559 55 37 3.0 12.0 0.00 0.00 0.00 42 1009.4
20260508192058 53 288 6.0 12.0 0.00 0.00 0.00 42 1009.4
20260508191557 54 146 3.0 9.0 0.00 0.00 0.00 41 1009.5
20260508191103 54 20 3.0 10.0 0.00 0.00 0.00 40 1009.3
20260508190559 55 204 2.0 10.0 0.00 0.00 0.00 40 1009.4
20260508190058 55 352 4.0 10.0 0.00 0.00 0.00 40 1009.3
20260508185559 54 167 1.0 11.0 0.00 0.00 0.00 41 1009.4
20260508185100 54 0 2.0 11.0 0.00 0.00 0.00 43 1009.2
20260508184601 55 156 4.0 8.0 0.00 0.00 0.00 42 1009.3
20260508184101 53 0 3.0 10.0 0.00 0.00 0.00 44 1009.4
20260508183559 53 153 1.0 12.0 0.00 0.00 0.00 41 1009.6
20260508183100 54 0 4.0 12.0 0.00 0.00 0.00 41 1009.5
20260508182602 54 356 6.0 12.0 0.00 0.00 0.00 42 1009.5
20260508182102 54 105 3.0 12.0 0.00 0.00 0.00 40 1009.7
20260508181600 54 0 6.0 12.0 0.00 0.00 0.00 43 1009.6
20260508181059 54 270 3.0 8.0 0.00 0.00 0.00 41 1009.8
20260508180601 53 333 1.0 9.0 0.00 0.00 0.00 39 1009.7
20260508175600 53 107 3.0 10.0 0.00 0.00 0.00 40 1009.7
20260508175100 52 0 1.0 10.0 0.00 0.00 0.00 43 1009.8
20260508174602 53 193 4.0 10.0 0.00 0.00 0.00 40 1009.9
20260508174102 54 79 2.0 9.0 0.00 0.00 0.00 43 1009.9
20260508173603 53 240 1.0 9.0 0.00 0.00 0.00 41 1009.9
20260508173101 54 10 3.0 9.0 0.00 0.00 0.00 40 1009.9
20260508172559 54 180 3.0 16.0 0.00 0.00 0.00 48 1009.7
20260508172102 54 141 7.0 16.0 0.00 0.00 0.00 40 1009.7
20260508171601 53 174 2.0 8.0 0.00 0.00 0.00 40 1009.7
20260508171101 54 0 1.0 9.0 0.00 0.00 0.00 41 1009.6
20260508170559 53 190 3.0 9.0 0.00 0.00 0.00 41 1009.8
20260508170101 54 262 4.0 9.0 0.00 0.00 0.00 41 1009.7
20260508165559 53 89 1.0 7.0 0.00 0.00 0.00 48 1009.6
20260508165101 52 116 2.0 8.0 0.00 0.00 0.00 43 1009.8
20260508164559 52 91 1.0 8.0 0.00 0.00 0.00 40 1010.0
20260508164101 53 181 3.0 9.0 0.00 0.00 0.00 42 1010.0
20260508163559 53 0 3.0 9.0 0.00 0.00 0.00 45 1010.1
20260508163059 52 8 2.0 11.0 0.00 0.00 0.00 45 1010.0
20260508162600 51 186 1.0 11.0 0.00 0.00 0.00 45 1010.1
20260508162101 51 167 1.0 15.0 0.00 0.00 0.00 45 1010.0
20260508161602 51 250 5.0 15.0 0.00 0.00 0.00 43 1010.2
20260508161102 51 179 4.0 9.0 0.00 0.00 0.00 45 1010.1
20260508160559 50 188 2.0 8.0 0.00 0.00 0.00 47 1010.1
20260508160101 50 253 2.0 6.0 0.00 0.00 0.00 45 1010.2
20260508155604 50 0 2.0 7.0 0.00 0.00 0.00 42 1010.2
20260508155059 50 0 2.0 7.0 0.00 0.00 0.00 43 1010.2
20260508154613 50 1 1.0 15.0 0.00 0.00 0.00 45 1010.2
20260508154059 50 347 2.0 15.0 0.00 0.00 0.00 45 1010.3
20260508153601 50 0 5.0 15.0 0.00 0.00 0.00 43 1010.0
20260508153059 51 53 2.0 14.0 0.00 0.00 0.00 43 1010.0
20260508152559 51 317 1.0 14.0 0.00 0.00 0.00 46 1010.0
20260508152059 52 37 6.0 13.0 0.00 0.00 0.00 44 1009.9
20260508151600 52 337 2.0 12.0 0.00 0.00 0.00 48 1009.8
20260508151102 51 86 4.0 15.0 0.00 0.00 0.00 46 1009.8
20260508150600 50 338 7.0 17.0 0.00 0.00 0.00 46 1009.8
20260508150111 51 46 6.0 17.0 0.00 0.00 0.00 47 1009.6
20260508145559 50 354 4.0 14.0 0.00 0.00 0.00 44 1009.8
20260508145102 50 0 4.0 14.0 0.00 0.00 0.00 43 1009.8
20260508144602 51 67 1.0 8.0 0.00 0.00 0.00 46 1009.9
20260508144101 50 314 3.0 11.0 0.00 0.00 0.00 48 1010.0
20260508143602 49 51 4.0 11.0 0.00 0.00 0.00 46 1010.2
20260508143134 50 350 1.0 12.0 0.00 0.00 0.00 45 1010.2
20260508142601 49 51 3.0 16.0 0.00 0.00 0.00 46 1010.1
20260508142058 50 317 4.0 16.0 0.00 0.00 0.00 45 1010.1
20260508141607 50 356 5.0 16.0 0.00 0.00 0.00 46 1010.3
20260508141059 50 74 3.0 9.0 0.00 0.00 0.00 56 1010.3
20260508140604 50 105 1.0 9.0 0.00 0.00 0.00 46 1010.2
20260508140118 50 347 1.0 14.0 0.00 0.00 0.00 49 1010.3
20260508135600 51 85 2.0 14.0 0.00 0.00 0.00 46 1010.3
20260508135100 50 148 3.0 12.0 0.00 0.00 0.00 47 1010.2
20260508134601 49 191 2.0 12.0 0.00 0.00 0.00 48 1010.3
20260508134059 49 1 4.0 12.0 0.00 0.00 0.00 47 1010.3
20260508133603 49 0 1.0 9.0 0.00 0.00 0.00 47 1010.4
20260508133108 49 0 2.0 9.0 0.00 0.00 0.00 46 1010.5
20260508132559 50 264 2.0 8.0 0.00 0.00 0.00 45 1010.5
20260508132100 50 63 2.0 7.0 0.00 0.00 0.00 55 1010.6
20260508131605 49 134 3.0 10.0 0.00 0.00 0.00 52 1010.5
20260508131101 48 245 1.0 10.0 0.00 0.00 0.00 49 1010.6
20260508130559 49 342 4.0 10.0 0.00 0.00 0.00 49 1010.5
20260508125558 48 153 1.0 8.0 0.00 0.00 0.00 51 1010.6
20260508125059 47 43 4.0 8.0 0.00 0.00 0.00 58 1010.6
20260508124601 47 120 2.0 7.0 0.00 0.00 0.00 53 1010.6
20260508124059 48 0 1.0 7.0 0.00 0.00 0.00 56 1010.7
20260508123559 47 183 1.0 6.0 0.00 0.00 0.00 62 1010.5
20260508123100 46 144 2.0 6.0 0.00 0.00 0.00 59 1010.5
20260508122559 46 161 2.0 6.0 0.00 0.00 0.00 66 1010.5
20260508122059 45 0 1.0 4.0 0.00 0.00 0.00 58 1010.7
20260508121559 45 181 0.0 4.0 0.00 0.00 0.00 60 1010.7
20260508121100 45 0 2.0 4.0 0.00 0.00 0.00 62 1010.8
20260508120559 45 0 1.0 5.0 0.00 0.00 0.00 56 1010.8
20260508120104 46 48 1.0 6.0 0.00 0.00 0.00 58 1010.8
20260508115603 45 150 0.0 6.0 0.00 0.00 0.00 57 1010.7
20260508115059 45 111 1.0 6.0 0.00 0.00 0.00 57 1010.6
20260508114558 45 6 1.0 4.0 0.00 0.00 0.00 65 1010.7
20260508114101 44 245 1.0 4.0 0.00 0.00 0.00 72 1010.6
20260508113600 43 0 2.0 4.0 0.00 0.00 0.00 75 1010.5
20260508113100 42 167 1.0 4.0 0.00 0.00 0.00 79 1010.5
20260508112602 41 128 1.0 5.0 0.00 0.00 0.00 80 1010.5
20260508112102 40 142 1.0 6.0 0.00 0.00 0.00 82 1010.3
20260508111607 40 136 0.0 6.0 0.00 0.00 0.00 83 1010.4
20260508111059 39 0 2.0 6.0 0.00 0.00 0.00 85 1010.3
20260508110558 39 155 1.0 3.0 0.00 0.00 0.00 86 1010.3
20260508110112 38 157 0.0 2.0 0.00 0.00 0.00 87 1010.3
20260508105558 37 0 0.0 3.0 0.00 0.00 0.00 87 1010.4
20260508105101 37 0 0.0 3.0 0.00 0.00 0.00 88 1010.2
20260508104613 36 183 0.0 2.0 0.00 0.00 0.00 88 1010.1
20260508104101 36 0 0.0 2.0 0.00 0.00 0.00 88 1010.3
20260508103601 36 113 0.0 2.0 0.00 0.00 0.00 89 1010.1
20260508103104 35 0 0.0 3.0 0.00 0.00 0.00 91 1010.1
20260508102601 34 0 0.0 3.0 0.00 0.00 0.00 91 1010.0
20260508102103 34 98 0.0 4.0 0.00 0.00 0.00 91 1009.9
20260508101558 34 0 0.0 4.0 0.00 0.00 0.00 91 1009.9
20260508101059 34 323 1.0 4.0 0.00 0.00 0.00 91 1010.0
20260508100600 34 129 0.0 2.0 0.00 0.00 0.00 91 1009.9
20260508095600 34 0 0.0 1.0 0.00 0.00 0.00 90 1009.7
20260508095100 34 0 0.0 2.0 0.00 0.00 0.00 90 1009.6
20260508094600 34 0 0.0 2.0 0.00 0.00 0.00 90 1009.6
20260508094058 34 198 0.0 3.0 0.00 0.00 0.00 90 1009.5
20260508093603 34 0 0.0 3.0 0.00 0.00 0.00 90 1009.5
20260508093102 34 199 1.0 3.0 0.00 0.00 0.00 90 1009.5
20260508092601 34 343 0.0 3.0 0.00 0.00 0.00 90 1009.5
20260508092103 34 0 0.0 2.0 0.00 0.00 0.00 90 1009.5
20260508091610 34 0 0.0 2.0 0.00 0.00 0.00 90 1009.5
20260508091058 34 0 0.0 2.0 0.00 0.00 0.00 90 1009.5
20260508090558 34 226 0.0 2.0 0.00 0.00 0.00 90 1009.5
20260508090106 34 0 0.0 1.0 0.00 0.00 0.00 90 1009.4
20260508085558 34 0 0.0 2.0 0.00 0.00 0.00 89 1009.5
20260508085102 34 0 0.0 2.0 0.00 0.00 0.00 89 1009.4
20260508084615 34 0 0.0 2.0 0.00 0.00 0.00 90 1009.4
20260508084101 34 155 0.0 2.0 0.00 0.00 0.00 89 1009.5
20260508083558 34 119 0.0 1.0 0.00 0.00 0.00 90 1009.4
20260508083109 34 0 0.0 1.0 0.00 0.00 0.00 90 1009.4
20260508082601 34 313 0.0 1.0 0.00 0.00 0.00 90 1009.4
20260508082101 34 0 0.0 2.0 0.00 0.00 0.00 90 1009.3
20260508081601 34 0 0.0 2.0 0.00 0.00 0.00 90 1009.4
20260508081101 33 0 0.0 3.0 0.00 0.00 0.00 90 1009.5
20260508080559 33 0 0.0 3.0 0.00 0.00 0.00 90 1009.4
20260508080111 33 143 0.0 3.0 0.00 0.00 0.00 91 1009.4
20260508075602 33 0 0.0 2.0 0.00 0.00 0.00 91 1009.3
20260508075057 33 0 0.0 2.0 0.00 0.00 0.00 91 1009.2
20260508074619 33 0 0.0 2.0 0.00 0.00 0.00 91 1009.2
20260508074058 33 0 0.0 2.0 0.00 0.00 0.00 91 1009.2
20260508073602 33 0 0.0 2.0 0.00 0.00 0.00 91 1009.2
20260508073101 33 351 0.0 2.0 0.00 0.00 0.00 91 1009.2
20260508072605 33 184 0.0 1.0 0.00 0.00 0.00 91 1009.1
20260508072102 32 302 0.0 1.0 0.00 0.00 0.00 91 1009.1
20260508071600 32 0 0.0 3.0 0.00 0.00 0.00 91 1009.2
20260508071059 32 0 0.0 3.0 0.00 0.00 0.00 91 1009.2
20260508070559 32 0 0.0 2.0 0.00 0.00 0.00 90 1009.2
20260508065559 33 0 0.0 2.0 0.00 0.00 0.00 90 1009.3
20260508065101 32 160 0.0 2.0 0.00 0.00 0.00 90 1009.2
20260508064601 32 351 0.0 1.0 0.00 0.00 0.00 90 1009.2
20260508064058 32 0 0.0 2.0 0.00 0.00 0.00 90 1009.3
20260508063558 32 0 0.0 2.0 0.00 0.00 0.00 90 1009.3
20260508063059 33 0 0.0 2.0 0.00 0.00 0.00 90 1009.2
20260508062600 33 0 0.0 2.0 0.00 0.00 0.00 90 1009.3
20260508062104 33 0 0.0 2.0 0.00 0.00 0.00 90 1009.3
20260508061601 33 0 0.0 1.0 0.00 0.00 0.00 90 1009.4
20260508061059 33 0 0.0 2.0 0.00 0.00 0.00 90 1009.4
20260508060559 33 0 0.0 2.0 0.00 0.00 0.00 90 1009.3
20260508055601 33 0 0.0 2.0 0.00 0.00 0.00 89 1009.5
20260508055058 33 0 0.0 1.0 0.00 0.00 0.00 89 1009.4
20260508054601 34 0 0.0 2.0 0.00 0.00 0.00 89 1009.5
20260508054057 34 0 0.0 2.0 0.00 0.00 0.00 89 1009.4
20260508053557 34 0 0.0 2.0 0.00 0.00 0.00 89 1009.4
20260508053106 34 172 0.0 2.0 0.00 0.00 0.00 88 1009.4
20260508052600 34 0 0.0 2.0 0.00 0.00 0.00 88 1009.4
20260508052101 34 0 0.0 2.0 0.00 0.00 0.00 88 1009.5
20260508051611 34 0 0.0 1.0 0.00 0.00 0.00 88 1009.4
20260508051102 34 0 0.0 1.0 0.00 0.00 0.00 87 1009.6
20260508050559 35 0 0.0 1.0 0.00 0.00 0.00 87 1009.5
20260508050113 35 0 0.0 2.0 0.00 0.00 0.00 86 1009.5
20260508045601 35 0 0.0 2.0 0.00 0.00 0.00 87 1009.3
20260508045059 35 0 1.0 2.0 0.00 0.00 0.00 87 1009.3
20260508044601 35 0 0.0 1.0 0.00 0.00 0.00 86 1009.4
20260508044059 35 0 0.0 2.0 0.00 0.00 0.00 87 1009.7
20260508043558 35 0 0.0 2.0 0.00 0.00 0.00 86 1009.8
20260508043105 35 0 0.0 2.0 0.00 0.00 0.00 85 1009.9
20260508042602 35 0 0.0 2.0 0.00 0.00 0.00 85 1009.8
20260508042101 35 0 0.0 2.0 0.00 0.00 0.00 85 1009.7
20260508041604 35 0 0.0 0.0 0.00 0.00 0.00 84 1009.7
20260508041059 36 0 0.0 1.0 0.00 0.00 0.00 84 1009.7
20260508040559 36 0 0.0 1.0 0.00 0.00 0.00 84 1009.6
20260508040114 36 0 0.0 2.0 0.00 0.00 0.00 84 1009.6
20260508035559 36 0 0.0 2.0 0.00 0.01 0.00 84 1009.6
20260508035100 36 0 0.0 2.0 0.00 0.01 0.00 84 1009.6
20260508034610 36 0 0.0 2.0 0.00 0.01 0.00 83 1009.6
20260508034058 36 0 0.0 3.0 0.00 0.01 0.00 83 1009.7
20260508033600 36 0 0.0 3.0 0.00 0.01 0.00 83 1009.6
20260508033101 36 303 0.0 2.0 0.00 0.01 0.00 83 1009.7
20260508032602 36 262 0.0 2.0 0.00 0.01 0.00 83 1009.7
20260508032100 36 0 0.0 2.0 0.00 0.01 0.00 83 1009.6
20260508031557 36 283 0.0 1.0 0.00 0.01 0.00 84 1009.5
20260508031057 36 0 0.0 2.0 0.00 0.01 0.00 84 1009.5
20260508030600 36 0 0.0 2.0 0.00 0.01 0.00 84 1009.4
20260508025557 36 0 0.0 1.0 0.00 0.01 0.00 83 1009.5
20260508025101 37 0 0.0 1.0 0.00 0.01 0.00 82 1009.5
20260508024602 37 0 0.0 1.0 0.00 0.01 0.00 82 1009.5
20260508024059 37 0 0.0 1.0 0.00 0.01 0.00 81 1009.5
20260508023601 37 196 0.0 1.0 0.00 0.01 0.00 80 1009.4
20260508023101 38 0 0.0 1.0 0.00 0.01 0.00 80 1009.5
20260508022601 38 0 0.0 1.0 0.00 0.01 0.00 80 1009.5
20260508022100 38 0 0.0 0.0 0.00 0.01 0.00 79 1009.5
20260508021601 38 0 0.0 1.0 0.00 0.01 0.00 79 1009.5
20260508021059 39 0 0.0 1.0 0.00 0.01 0.00 78 1009.5
20260508020559 39 0 0.0 1.0 0.00 0.01 0.00 78 1009.5
20260508015559 40 0 0.0 1.0 0.00 0.05 0.00 77 1009.4
20260508015100 40 0 0.0 1.0 0.00 0.05 0.00 76 1009.3
20260508014600 41 0 0.0 1.0 0.00 0.05 0.00 76 1009.3
20260508014100 41 0 0.0 1.0 0.00 0.05 0.00 75 1009.3
20260508013602 41 0 0.0 1.0 0.00 0.05 0.00 74 1009.2
20260508013059 41 0 0.0 1.0 0.00 0.05 0.00 75 1009.2
20260508012559 41 238 0.0 2.0 0.00 0.05 0.00 75 1009.1
20260508012058 42 0 0.0 2.0 0.00 0.05 0.00 74 1009.2
20260508011601 42 247 0.0 2.0 0.00 0.05 0.00 73 1009.1
20260508011058 43 0 0.0 2.0 0.00 0.05 0.00 71 1009.0
20260508010558 43 271 0.0 2.0 0.00 0.05 0.00 74 1008.9
20260508010100 43 0 0.0 2.0 0.00 0.05 0.00 72 1008.9
20260508005603 43 0 0.0 1.0 0.00 0.09 0.00 71 1008.8
20260508005101 43 0 0.0 3.0 0.00 0.09 0.00 72 1008.8
20260508004604 44 0 0.0 3.0 0.00 0.09 0.00 70 1008.6
20260508004058 44 296 1.0 3.0 0.00 0.09 0.00 69 1008.6
20260508003600 45 0 1.0 3.0 0.00 0.09 0.00 65 1008.4
20260508003100 45 298 1.0 3.0 0.00 0.09 0.00 68 1008.4
20260508002557 45 262 0.0 3.0 0.00 0.09 0.00 64 1008.4
20260508002102 46 0 0.0 3.0 0.00 0.09 0.00 66 1008.4
20260508001601 46 283 1.0 2.0 0.00 0.09 0.00 66 1008.3
20260508001103 46 291 0.0 2.0 0.00 0.09 0.00 65 1008.3
20260508000600 47 295 0.0 3.0 0.00 0.09 0.00 62 1008.1
20260507235558 47 0 1.0 3.0 0.00 0.12 0.00 64 1008.1
20260507235057 48 286 1.0 3.0 0.00 0.12 0.00 64 1008.1
20260507234603 48 0 1.0 3.0 0.00 0.12 0.00 59 1008.0
20260507234105 48 314 1.0 6.0 0.00 0.12 0.00 58 1007.9
20260507233602 48 294 1.0 6.0 0.00 0.12 0.00 61 1007.9
20260507233117 48 0 1.0 6.0 0.00 0.12 0.00 62 1007.8
20260507232600 49 2 0.0 6.0 0.00 0.12 0.00 64 1007.7
20260507232100 49 329 1.0 6.0 0.00 0.12 0.00 58 1007.7